Terug naar catalogus

STARLINK-5509

ActiefCommunicatieVLEO
NORAD 57263·PAYLOAD·🇺🇸 United States

Gelanceerd Jul 7, 2023 vanaf Vandenberg Space Force Base

Loading…

Volgende Passages (komende 24 uur)

TLE

VersSource: CelesTrak SupGP

Epoch: Sep 15, 2026, 03:04 UTC

1 57263C 23094AX  26258.12826389 -.00034103  00000+0 -12351-2 0  2587
2 57263  43.0012  40.7361 0001442 268.3143 292.5047 15.27597249    15

Volg STARLINK-5509 in realtime met AllMySat

Download on the App Store